This is the latest recevied weather packets stored in our database for station/object K2ATL. If no packets are shown the sender has not sent any weather packets the latest 10 day(s).
| Time | Temp. | Humidity | Pressure | Rain* | Wind** | Luminosity | Snow |
|---|---|---|---|---|---|---|---|
| 1777535377 | 12.78° C | 97% | 1097.1 hPa | 3.05 mm | - | 0 W/m² | - |
| 1777535075 | 13.33° C | 98% | 1097.2 hPa | 3.56 mm | - | 0 W/m² | - |
| 1777534772 | 13.33° C | 97% | 1097.1 hPa | 0 mm | - | 0 W/m² | - |
| 1777534468 | 13.89° C | 95% | 1096.6 hPa | 0 mm | - | 0 W/m² | - |
| 1777534166 | 14.44° C | 90% | 1096.2 hPa | 0 mm | - | 0 W/m² | - |
| 1777533863 | 14.44° C | 91% | 1095.3 hPa | 0 mm | - | 0 W/m² | - |
| 1777533560 | 15° C | 92% | 1094.9 hPa | 0 mm | - | 0 W/m² | - |
| 1777533256 | 15° C | 91% | 1095.2 hPa | 0 mm | - | 0 W/m² | - |
| 1777532952 | 15° C | 92% | 1094.9 hPa | 0 mm | - | 0 W/m² | - |
| 1777532649 | 15° C | 92% | 1094.8 hPa | 0 mm | - | 0 W/m² | - |
| 1777532347 | 15° C | 92% | 1095 hPa | 0 mm | - | 0 W/m² | - |
| 1777532042 | 15° C | 92% | 1095.5 hPa | 0 mm | - | 0 W/m² | - |
| 1777531738 | 15.56° C | 92% | 1095.5 hPa | 0 mm | - | 0 W/m² | - |
| 1777531435 | 15.56° C | 90% | 1095.5 hPa | 0 mm | - | 0 W/m² | - |
| 1777531133 | 15.56° C | 90% | 1095.6 hPa | 0 mm | - | 0 W/m² | - |
| 1777530830 | 15.56° C | 90% | 1095.4 hPa | 0 mm | - | 0 W/m² | - |
| 1777530528 | 15.56° C | 92% | 1095.5 hPa | 0 mm | - | 0 W/m² | - |
| 1777530224 | 15.56° C | 92% | 1095.8 hPa | 0 mm | - | 0 W/m² | - |
| 1777529921 | 15.56° C | 92% | 1095.5 hPa | 0 mm | - | 0 W/m² | - |
| 1777529617 | 15.56° C | 91% | 1095.4 hPa | 0 mm | - | 0 W/m² | - |
| 1777529315 | 15.56° C | 91% | 1095.2 hPa | 0 mm | - | 0 W/m² | - |
| 1777529011 | 15.56° C | 91% | 1095.4 hPa | 0 mm | - | 0 W/m² | - |
| 1777528706 | 15.56° C | 91% | 1095.3 hPa | 0 mm | - | 0 W/m² | - |
| 1777528404 | 15.56° C | 92% | 1095.4 hPa | 0 mm | - | 0 W/m² | - |
| 1777528102 | 16.11° C | 91% | 1095.5 hPa | 0 mm | - | 0 W/m² | - |
* Rain latest hour (hover to see other rain measurements)
** Current wind speed in m/s (hover to see current wind gust speed)